Home   Weather   Rochester   Past weeks

Flag for USA Past Weather in Rochester, New York, USA — Yesterday and Last 2 Weeks

Now
78 °F

Cloudy.


Feels Like: 80 °F
Forecast: 58 / 80 °F
Wind: 8 mph from Southeast

Location: Greater Rochester International Airport

Current Time: Aug 17, 2017 at 5:37:26 pm

Latest Report: Aug 17, 2017 at 4:54 pm


Visibility: 10 mi

Pressure: 29.89 "Hg

Humidity: 64%

Dew Point: 65 °F

Location of RochesterLocation

Past Weather in Rochester — Graph

°F

Rochester Temperature Yesterday

Maximum temperature yesterday: 74 °F (at 2:54 pm)
Minimum temperature yesterday: 62 °F (at 5:54 am)
Average temperature yesterday: 68 °F

High & Low Weather Summary for the Past Weeks

 TemperatureHumidityPressure
High87 °F (Aug 2, 4:54 pm)97% (Aug 4, 6:54 pm)30.22 "Hg (Aug 4, 6:54 pm)
Low52 °F (Aug 6, 5:54 am)36% (Aug 10, 3:54 pm)29.79 "Hg (Aug 4, 5:54 pm)
Average69 °F74%30.00 "Hg
* Reported Aug 2 3:54 pm — Aug 17 3:54 pm, Rochester. Weather by CustomWeather, © 2017

Note: Actual official high and low records may vary slightly from our data, if they occured in-between our weather recording intervals... More about our weather records

Advertising

Rochester Weather History for the Previous 24 Hours

Scroll right to see more
 ConditionsComfort  
Time TempWeatherWind HumidityBarometerVisibility
3:54 pm
Thu, Aug 17
79 °FMore clouds than sun.10 mph62%29.92 "Hg10 mi
2:54 pm79 °FOvercast.9 mph58%29.94 "Hg10 mi
1:54 pm78 °FPartly sunny.6 mph56%29.96 "Hg10 mi
12:54 pm78 °FScattered clouds.7 mph56%29.98 "Hg10 mi
11:54 am76 °FScattered clouds.7 mph56%30.01 "Hg10 mi
10:54 am72 °FScattered clouds.5 mph59%30.03 "Hg10 mi
9:54 am70 °FScattered clouds.6 mph59%30.05 "Hg10 mi
8:54 am66 °FScattered clouds.5 mph65%30.06 "Hg10 mi
7:54 am61 °FPartly sunny.No wind83%30.06 "Hg10 mi
6:54 am58 °FPartly sunny.No wind90%30.07 "Hg10 mi
5:54 am57 °FPassing clouds.No wind93%30.06 "Hg10 mi
4:54 am57 °FPassing clouds.No wind93%30.05 "Hg10 mi
3:54 am57 °FPassing clouds.No wind93%30.06 "Hg10 mi
2:54 am59 °FPassing clouds.No wind87%30.07 "Hg10 mi
1:54 am58 °FClear.No wind90%30.08 "Hg10 mi
12:54 am59 °FClear.No wind87%30.09 "Hg10 mi
11:54 pm
Wed, Aug 16
62 °FClear.No wind78%30.09 "Hg10 mi
10:54 pm63 °FClear.No wind75%30.09 "Hg10 mi
9:54 pm65 °FClear.3 mph70%30.08 "Hg10 mi
8:54 pm67 °FClear.5 mph63%30.07 "Hg10 mi
7:54 pm69 °FPartly sunny.5 mph55%30.07 "Hg10 mi
6:54 pm72 °FScattered clouds.7 mph53%30.07 "Hg10 mi
5:54 pm73 °FPassing clouds.8 mph55%30.07 "Hg10 mi
Weather by CustomWeather, © 2017

See weather overviewHow to use our weather pages